Weather History for Bentonville, AR

Change the Weather History Date:

Thursday, January 9, 2014

  Actual Average Record
Temperature  
Mean Temperature 37 °F -  
Max Temperature 37 °F 39 °F 67 °F (1949)
Min Temperature 37 °F 19 °F -10 °F (1970)
Degree Days  
Heating Degree Days 28    
Moisture  
Dew Point 34 °F    
Average Humidity 87    
Maximum Humidity 87    
Minimum Humidity 87    
Precipitation  
Precipitation 0.00 in - - ()
Sea Level Pressure  
Sea Level Pressure 30.07 in    
Wind  
Wind Speed 4 mph (SSE)    
Max Wind Speed 8 mph    
Max Gust Speed -    
Visibility 10 miles    
Events      
Averages and records for this station are not official NWS values.
T = Trace of Precipitation, MM = Missing Value Source: NWS Daily Summary

Daily Weather History Graph

Daily Weather History Graph

Search for Another Location

Airport:

Trip Planner

Search our weather history database for the weather conditions in past years. The results will help you decide how hot, cold, wet, or windy it might be!

Date:

Astronomy

Jan. 09, 2014 Rise Set
Actual Time 7:28 AM CST 5:19 PM CST
Civil Twilight 7:00 AM CST 5:47 PM CST
Nautical Twilight 6:28 AM CST 6:19 PM CST
Astronomical Twilight 5:57 AM CST 6:50 PM CST
Moon 12:43 PM CST (1/9) 1:41 AM CST (1/9)
Length of Visible Light 10h 47m
Length of Day
9h 50m
Waxing Gibbous, 66% of the Moon is Illuminated
Jan 9
Waxing Gibbous
Jan 15
Full
Jan 23
Last Quarter
Jan 30
New
Feb 6
First Quarter

Hourly Weather History & Observations

Time (CST) Temp. Windchill Dew Point Humidity Pressure Visibility Wind Dir Wind Speed Gust Speed Precip Events Conditions
3:35 PM 37.4 °F 34.9 °F 33.8 °F 87% 30.10 in 10.0 mi South 3.5 mph - N/A   Unknown
3:55 PM 37.4 °F - 33.8 °F 87% 30.10 in 10.0 mi Calm Calm - N/A   Overcast
4:15 PM 37.4 °F 34.9 °F 33.8 °F 87% 30.10 in 10.0 mi South 3.5 mph - N/A   Overcast
5:15 PM 37.4 °F - 33.8 °F 87% 30.09 in 10.0 mi Calm Calm - N/A   Overcast
5:35 PM 37.4 °F 34.9 °F 33.8 °F 87% 30.09 in 10.0 mi South 3.5 mph - N/A   Overcast
5:55 PM 37.4 °F 34.9 °F 33.8 °F 87% 30.09 in 10.0 mi SSE 3.5 mph - N/A   Overcast
6:15 PM 37.4 °F 34.9 °F 33.8 °F 87% 30.08 in 10.0 mi SSE 3.5 mph - N/A   Overcast
6:35 PM 37.4 °F 34.9 °F 33.8 °F 87% 30.08 in 10.0 mi SSE 3.5 mph - N/A   Overcast
6:55 PM 37.4 °F 33.8 °F 33.8 °F 87% 30.08 in 10.0 mi SSE 4.6 mph - N/A   Overcast
7:15 PM 37.4 °F 32.1 °F 33.8 °F 87% 30.08 in 10.0 mi SSE 6.9 mph - N/A   Overcast
7:35 PM 37.4 °F 32.1 °F 33.8 °F 87% 30.07 in 10.0 mi SE 6.9 mph - N/A   Overcast
7:55 PM 37.4 °F 32.1 °F 33.8 °F 87% 30.08 in 10.0 mi SE 6.9 mph - N/A   Overcast
8:15 PM 37.4 °F 32.1 °F 33.8 °F 87% 30.08 in 10.0 mi SE 6.9 mph - N/A   Overcast
8:35 PM 37.4 °F 32.1 °F 33.8 °F 87% 30.08 in 10.0 mi SE 6.9 mph - N/A   Overcast
8:55 PM 37.4 °F 32.1 °F 33.8 °F 87% 30.08 in 10.0 mi SE 6.9 mph - N/A   Overcast
9:15 PM 37.4 °F 32.1 °F 33.8 °F 87% 30.07 in 10.0 mi SSE 6.9 mph - N/A   Overcast
9:35 PM 37.4 °F 32.1 °F 33.8 °F 87% 30.07 in 10.0 mi SE 6.9 mph - N/A   Overcast
9:55 PM 37.4 °F 31.4 °F 33.8 °F 87% 30.06 in 10.0 mi SSE 8.1 mph - N/A   Overcast
10:15 PM 37.4 °F 32.1 °F 33.8 °F 87% 30.05 in 10.0 mi SSE 6.9 mph - N/A   Overcast
10:35 PM 37.4 °F 32.1 °F 33.8 °F 87% 30.05 in 10.0 mi SE 6.9 mph - N/A   Overcast
10:55 PM 37.4 °F 32.8 °F 33.8 °F 87% 30.05 in 10.0 mi SSE 5.8 mph - N/A   Overcast
11:15 PM 37.4 °F 32.1 °F 33.8 °F 87% 30.03 in 10.0 mi SSE 6.9 mph - N/A   Overcast
11:35 PM 37.4 °F 32.8 °F 33.8 °F 87% 30.02 in 10.0 mi SE 5.8 mph - N/A   Overcast
11:55 PM 37.4 °F 31.4 °F 33.8 °F 87% 30.01 in 10.0 mi SSE 8.1 mph - N/A   Overcast